Simultaneous Nadir Overpasses (SNOs) Predictions

Prediction of SNOs between LANDSAT-8 and METOP-A Satellite Orbit:

Table of predicted SNOs for the next 14.0 days since TLE Epoch: 6/29/2018
Index Date (LANDSAT-8) Time (LANDSAT-8) Lat,Lon (LANDSAT-8) SZA (LANDSAT-8 ) Date (METOP-A) Time (METOP-A) Lat,Lon (METOP-A) SZA (METOP-A ) Distance(km) Time Diff (sec)
1 07/02/2018 16:58:52 -81.36, 149.40 119.20 07/02/2018 16:58:17 -81.37, 149.21 119.23 3.22 35
2 07/02/2018 17:48:17 81.39, -42.47 60.88 07/02/2018 17:48:55 81.38, -42.28 60.92 3.08 38
3 07/05/2018 12:33:08 -81.38,-143.89 118.93 07/05/2018 12:32:33 -81.37,-143.97 118.96 1.45 35
4 07/05/2018 13:22:34 81.38, 23.83 61.09 07/05/2018 13:23:13 81.38, 23.71 61.09 2.01 39
5 07/08/2018 08:07:25 -81.37, -77.60 118.67 07/08/2018 08:06:50 -81.37, -77.57 118.68 0.73 35
6 07/08/2018 08:56:51 81.37, 90.09 61.35 07/08/2018 08:57:30 81.38, 90.08 61.37 0.70 39
7 07/11/2018 03:41:40 -81.38, -10.97 118.31 07/11/2018 03:41:05 -81.38, -10.79 118.30 3.06 35




NCC Satellite Simultaneous Nadir Overpasses (SNOs) Prediction Service
